Regional Weather Roundup
Issued by NWS

Home | Current Version | Previous Version | Graphics & Text | Print | Product List | Glossary On
Versions: 1 2 3 4 5 6 7 8 9 10 11 12 13 14 15 16 17 18 19 20 21 22 23 24 25 26 27 28 29 30 31 32 33 34 35 36 37 38 39 40 41 42 43 44 45 46 47 48 49 50
000
ASUS43 KMPX 221110
RWRMN
WEATHER ROUNDUP FOR MINNESOTA
NATIONAL WEATHER SERVICE TWIN CITIES/CHANHASSEN MN
500 AM CST WED NOV 22 2017


NOTE: "FAIR" INDICATES FEW OR NO CLOUDS BELOW 12,000 FEET WITH NO
SIGNIFICANT WEATHER AND/OR OBSTRUCTIONS TO VISIBILITY. N/A MEANS
CURRENT SKY AND/OR WEATHER CONDITIONS ARE NOT AVAILABLE.

MNZ060>063-068>070-221200-
   Twin Cities Metro

CITY           SKY/WX    TMP DP  RH WIND       PRES   REMARKS
TWIN CITIES    CLOUDY    16  10  77 CALM      30.33F
ST PAUL        CLEAR     16  10  77 SW3       30.35F
CRYSTAL        CLOUDY    14   7  73 CALM      30.31F
BLAINE         CLOUDY    16  10  79 SW3       30.31F
LAKEVILLE      CLOUDY    12  10  92 CALM      30.32F
EDEN PRAIRIE   CLOUDY    15  10  80 CALM      30.32F
SOUTH ST PAUL  CLOUDY    15  10  81 CALM      30.33F
LAKE ELMO      FAIR      12  10  92 S3        30.33F
$$
MNZ001>005-007-008-013>017-022>024-027-028-221200-
   Northwest Minnesota

CITY           SKY/WX    TMP DP  RH WIND       PRES   REMARKS
BEMIDJI        CLOUDY     5   3  88 S5        30.19F WCI  -4
HALLOCK        CLOUDY     3   0  85 S5        30.18F WCI  -6
ROSEAU         CLOUDY     9   5  85 SW6       30.18R WCI  -1
WARROAD        CLOUDY     9   3  78 SW6       30.18R WCI  -1
THIEF RVR FALL CLOUDY     8   5  87 SW8       30.21S WCI  -4
CROOKSTON      CLOUDY     9   3  78 S6        30.24S WCI  -1
FOSSTON        CLOUDY     7   3  85 S7        30.21F WCI  -5
DETROIT LAKES  CLOUDY    10   9  92 CALM      30.23F
MOORHEAD       CLOUDY     9   3  78 CALM      30.26S
PARK RAPIDS    CLOUDY     8   3  80 CALM      30.22S
MAHNOMEN       FAIR       8   4  86 SW7       30.23S WCI  -4
$$
MNZ006-009>011-018-025>026-221200-
   North Central Minnesota

CITY           SKY/WX    TMP DP  RH WIND       PRES   REMARKS
BAUDETTE       CLOUDY     5   2  87 SW5       30.16F WCI  -4
FLAG ISLAND    CLOUDY     9   5  85 SW12      30.15R WCI  -6
INTL FALLS       N/A      3  -2  79 SW5       30.18F WCI  -6
WASKISH        CLOUDY     9   7  92 S3        30.19F
BIG FORK       CLOUDY     1  -2  85 CALM      30.21F
LONGVILLE      CLOUDY     7   3  85 SW3       30.24R
GRAND RAPIDS   CLOUDY     7   5  91 CALM      30.25S
CRANE LAKE     CLOUDY     7   3  85 CALM      30.24S
ORR            CLOUDY     3   0  85 CALM      30.19R
COOK           CLOUDY     3   1  92 CALM      30.22S
WALKER         FAIR       7   4  88 SW3       30.22F
$$
MNZ012-019>021-037-221200-
   Northeast Minnesota

CITY           SKY/WX    TMP DP  RH WIND       PRES   REMARKS
DULUTH         CLOUDY     8   6  92 W6        30.22S WCI  -2
ELY            FLURRIES   9   7  92 CALM      30.20R
HIBBING        CLOUDY     4   1  88 SW3       30.23R
EVELETH        CLOUDY     5   1  85 CALM      30.23F
DULUTH HARBOR  CLOUDY    18  12  79 W8        30.30S WCI   7
TWO HARBORS    CLOUDY    12   7  79 SW3       30.23R
SILVER BAY     CLOUDY     9   7  92 CALM      30.22R
GRAND MARAIS     N/A     20  13  74 VRB3      30.23S
G MARAIS ARPRT CLEAR      9   3  78 CALM      30.14F
$$
MNZ029>031-032-039>041-046>048-054>057-064-221200-
   West Central Minnesota

CITY           SKY/WX    TMP DP  RH WIND       PRES   REMARKS
FERGUS FALLS   CLOUDY     9   5  85 S6        30.30F WCI  -1
WHEATON        CLOUDY    10   7  85 S7        30.30S WCI   0
MORRIS         CLOUDY     9   7  92 S5        30.27F WCI   0
ALEXANDRIA     CLOUDY    10   7  87 S7        30.26F WCI  -1
ELBOW LAKE     FAIR       6   4  91 E6        30.27F WCI  -5
WADENA         CLOUDY     7   5  92 CALM      30.24S
GLENWOOD       CLOUDY     9   7  92 SW3       30.27F
APPLETON       CLOUDY    10   9  92 CALM      30.30F
BENSON           N/A      9   5  85 SW3       30.30F
ORTONVILLE     CLOUDY     9   5  85 MISG      30.28F
MADISON        CLOUDY    10   7  85 S3        30.30F
WILLMAR        FAIR      10   9  92 CALM      30.31F
$$
MNZ033>034-036-042>043-049>051-058-059-221200-
   Central Minnesota

CITY           SKY/WX    TMP DP  RH WIND       PRES   REMARKS
ST CLOUD       CLOUDY    11   8  88 S3        30.30F
SAUK CENTRE    FAIR      10   7  89 CALM      30.28S
PAYNESVILLE    CLOUDY     9   8  96 CALM      30.30S
AITKIN         CLOUDY     7   3  85 CALM      30.25F
PINE RIVER     CLOUDY     7   3  85 CALM      30.28R
BRAINERD       CLOUDY     9   6  88 SW5       30.27S WCI   1
STAPLES        CLOUDY     9   7  92 CALM      30.26R
LITTLE FALLS   CLOUDY    10   5  79 CALM      30.29S
LITCHFIELD     CLOUDY    14  12  92 CALM      30.31S
BUFFALO        CLOUDY    14  10  86 CALM      30.33S
MAPLE LAKE     CLOUDY    13  11  92 CALM      30.32S
HUTCHINSON     CLOUDY    11   9  89 CALM      30.32F
$$
MNZ037-044-045-052-053-221200-
   East Central Minnesota

CITY           SKY/WX    TMP DP  RH WIND       PRES   REMARKS
PRINCETON      CLOUDY     9   7  92 CALM      30.30S
MORA           CLOUDY    14  10  85 CALM      30.31S
CAMBRIDGE      CLOUDY    12   7  79 CALM      30.31S
RUSH CITY      CLEAR     12   9  85 W3        30.32R
MOOSE LAKE     CLOUDY    10   9  92 SW3       30.26S
HINCKLEY       FAIR      14  12  92 CALM      30.29R
CLOQUET        CLOUDY    10   7  85 CALM      30.23F
MCGREGOR       CLOUDY    12  10  92 CALM      30.26S
$$
MNZ071>073-080-081-089-090-097-098-221200-
   Southwest Minnesota

CITY           SKY/WX    TMP DP  RH WIND       PRES   REMARKS
MONTEVIDEO     CLOUDY    10   7  85 CALM      30.31F
GRANITE FALLS  CLOUDY     9   6  87 S5        30.33F WCI   1
CANBY          CLOUDY    15  10  80 S5        30.30F WCI   7
MARSHALL       CLOUDY    10   6  84 S3        30.31F
REDWOOD FALLS  CLOUDY    12   6  77 SW5       30.32F WCI   4
OLIVIA         CLOUDY    10   7  85 SW5       30.31F WCI   2
PIPESTONE      CLOUDY     9   3  78 S5        30.28F WCI   0
WINDOM         CLOUDY    10   0  61 CALM      30.31F
WORTHINGTON    CLOUDY    12   7  80 S6        30.31F WCI   3
JACKSON        CLOUDY    12   9  85 CALM      30.32F
SLAYTON        CLOUDY     8 -20  27 S6        30.30F WCI  -3
$$
MNZ065>067-074>077-082>085-091>093-221200-
   South Central Minnesota

CITY           SKY/WX    TMP DP  RH WIND       PRES   REMARKS
MANKATO        CLOUDY    13   9  84 SW5       30.34F WCI   5
NEW ULM        CLOUDY     9   5  85 CALM      30.34S
ST JAMES       CLOUDY    10   7  85 SW5       30.35F WCI   2
FAIRMONT       CLOUDY    12   8  84 W6        30.35F WCI   3
GLENCOE        CLOUDY    14  11  90 CALM      30.31F
FARIBAULT      CLOUDY    12  10  92 CALM      30.32F
OWATONNA       CLOUDY    10   9  92 CALM      30.32F
WASECA         CLOUDY    12  10  92 S3        30.34F
ALBERT LEA     CLOUDY    12   9  85 CALM      30.32F
$$
MNZ078>079-086>088-094>096-221200-
   Southeast Minnesota

CITY           SKY/WX    TMP DP  RH WIND       PRES   REMARKS
ROCHESTER      CLOUDY    12  10  92 W6        30.32S WCI   3
RED WING       CLOUDY    12   7  79 CALM      30.35S
STANTON        PTCLDY    14  10  85 CALM      30.33S
DODGE CENTER   CLOUDY    12   9  85 CALM      30.31F
WINONA         CLOUDY    18  10  73 NW6       30.36S WCI   9
AUSTIN         CLOUDY    12  10  92 NW3       30.32S
PRESTON          N/A     12   9  87 NW5       30.32S WCI   4
$$
ABBREVIATIONS USED IN REMARKS
   TC - TEMPERATURES IN CELSIUS
  WCI - WIND CHILL INDEX
   HX - HEAT INDEX
  VSB - VISIBILITY
$$




USA.gov is the U.S. government's official web portal to all federal, state and local government web resources and services.